McHenry, MD

5:45 AM EST on February 25, 2017 (GMT -0500)
Oakland

Weather History for K2G4 - April, 2013

Change the Weather History Date:

Sunday, April 7, 2013

  Actual Average (KMGW) Record (KMGW)
Temperature  
Mean Temperature 52 °F -  
Max Temperature 62 °F 59 °F 87 °F (2010)
Min Temperature 41 °F 36 °F 18 °F (1950)
Degree Days  
Heating Degree Days 14    
Growing Degree Days 2 (Base 50)    
Moisture  
Dew Point 30 °F    
Average Humidity 44    
Maximum Humidity 76    
Minimum Humidity 34    
Precipitation  
Precipitation 0.00 in - - ()
Sea Level Pressure  
Sea Level Pressure 30.02 in    
Wind  
Wind Speed 12 mph (SSW)    
Max Wind Speed 22 mph    
Max Gust Speed 29 mph    
Visibility 10 miles    
Events      
Averages and records for this station are not official NWS values.
T = Trace of Precipitation, MM = Missing Value Source: NWS Daily Summary

Daily Weather History Graph

Daily Weather History Graph

Search for Another Location

Airport or City:

Trip Planner

Search our weather history database for the weather conditions in past years. The results will help you decide how hot, cold, wet, or windy it might be!

Date:

Astronomy

Apr. 07, 2013 Rise Set
Actual Time 6:51 AM EDT 7:47 PM EDT
Civil Twilight 6:24 AM EDT 8:15 PM EDT
Nautical Twilight 5:51 AM EDT 8:47 PM EDT
Astronomical Twilight 5:18 AM EDT 9:21 PM EDT
Moon 5:07 AM EDT (4/7) 5:18 PM EDT (4/7)
Length of Visible Light 13h 50m
Length of Day
12h 55m
Waning Crescent, 8% of the Moon is Illuminated
Apr 7
Waning Crescent
Apr 10
New
Apr 18
First Quarter
Apr 25
Full
May 2
Last Quarter

Hourly Weather History & Observations

Time (EDT) Temp. Windchill Dew Point Humidity Pressure Visibility Wind Dir Wind Speed Gust Speed Precip Events Conditions
12:10 AM 41.0 °F 33.1 °F 17.6 °F 39% 30.08 in 10.0 mi SE 15.0 mph - N/A   Clear
12:30 AM 41.0 °F 33.5 °F 17.6 °F 39% 30.08 in 10.0 mi SE 13.8 mph - N/A   Mostly Cloudy
12:50 AM 41.0 °F 33.5 °F 17.6 °F 39% 30.07 in 10.0 mi SE 13.8 mph - N/A   Mostly Cloudy
1:10 AM 42.8 °F 36.2 °F 17.6 °F 36% 30.07 in 10.0 mi SE 12.7 mph - N/A   Overcast
1:30 AM 42.8 °F 36.2 °F 17.6 °F 36% 30.07 in 10.0 mi SE 12.7 mph 17.3 mph N/A   Overcast
1:50 AM 42.8 °F 35.8 °F 19.4 °F 39% 30.06 in 10.0 mi SE 13.8 mph - N/A   Mostly Cloudy
2:10 AM 42.8 °F 36.2 °F 19.4 °F 39% 30.06 in 10.0 mi SE 12.7 mph - N/A   Overcast
2:30 AM 41.0 °F 34.3 °F 19.4 °F 42% 30.06 in 10.0 mi SE 11.5 mph - N/A   Mostly Cloudy
2:50 AM 42.8 °F 37.0 °F 19.4 °F 39% 30.06 in 10.0 mi SSE 10.4 mph - N/A   Scattered Clouds
3:10 AM 41.0 °F 35.2 °F 19.4 °F 42% 30.06 in 10.0 mi SSE 9.2 mph - N/A   Mostly Cloudy
3:30 AM 41.0 °F 34.7 °F 19.4 °F 42% 30.05 in 10.0 mi SE 10.4 mph - N/A   Overcast
3:50 AM 41.0 °F 34.7 °F 19.4 °F 42% 30.05 in 10.0 mi SSE 10.4 mph - N/A   Scattered Clouds
4:10 AM 41.0 °F 34.7 °F 21.2 °F 45% 30.05 in 10.0 mi SSE 10.4 mph - N/A   Clear
4:30 AM 41.0 °F 35.2 °F 21.2 °F 45% 30.04 in 10.0 mi SSE 9.2 mph - N/A   Clear
4:50 AM 41.0 °F 34.7 °F 21.2 °F 45% 30.04 in 10.0 mi SSE 10.4 mph - N/A   Clear
5:10 AM 41.0 °F 34.7 °F 21.2 °F 45% 30.04 in 10.0 mi SSE 10.4 mph - N/A   Clear
5:30 AM 42.8 °F 37.0 °F 23.0 °F 46% 30.03 in 10.0 mi South 10.4 mph - N/A   Clear
5:50 AM 42.8 °F 36.6 °F 23.0 °F 46% 30.03 in 10.0 mi South 11.5 mph - N/A   Clear
6:10 AM 42.8 °F 36.6 °F 23.0 °F 46% 30.04 in 10.0 mi South 11.5 mph - N/A   Clear
6:30 AM 42.8 °F 36.6 °F 24.8 °F 49% 30.04 in 10.0 mi South 11.5 mph - N/A   Clear
6:50 AM 44.6 °F 38.4 °F 24.8 °F 46% 30.03 in 10.0 mi South 12.7 mph - N/A   Clear
7:10 AM 44.6 °F 38.4 °F 26.6 °F 49% 30.03 in 10.0 mi South 12.7 mph - N/A   Clear
7:30 AM 44.6 °F 38.4 °F 26.6 °F 49% 30.03 in 10.0 mi South 12.7 mph - N/A   Clear
7:50 AM 46.4 °F 40.7 °F 26.6 °F 46% 30.04 in 10.0 mi South 12.7 mph - N/A   Scattered Clouds
8:10 AM 46.4 °F 41.5 °F 26.6 °F 46% 30.04 in 10.0 mi South 10.4 mph - N/A   Mostly Cloudy
8:30 AM 46.4 °F 41.1 °F 28.4 °F 50% 30.04 in 10.0 mi South 11.5 mph 16.1 mph N/A   Mostly Cloudy
8:50 AM 50.0 °F - 28.4 °F 43% 30.03 in 10.0 mi SSW 10.4 mph 17.3 mph N/A   Scattered Clouds
9:10 AM 50.0 °F - 28.4 °F 43% 30.02 in 10.0 mi SSW 12.7 mph 18.4 mph N/A   Clear
9:30 AM 51.8 °F - 30.2 °F 44% 30.02 in 10.0 mi SW 16.1 mph 24.2 mph N/A   Clear
9:50 AM 53.6 °F - 30.2 °F 41% 30.02 in 10.0 mi SW 16.1 mph 19.6 mph N/A   Clear
10:10 AM 55.4 °F - 30.2 °F 38% 30.02 in 10.0 mi SSW 10.4 mph 21.9 mph N/A   Clear
10:30 AM 55.4 °F - 32.0 °F 41% 30.02 in 10.0 mi WSW 17.3 mph 27.6 mph N/A   Clear
10:50 AM 57.2 °F - 32.0 °F 38% 30.02 in 10.0 mi WSW 18.4 mph 26.5 mph N/A   Clear
11:10 AM 59.0 °F - 32.0 °F 36% 30.01 in 10.0 mi SW 16.1 mph 24.2 mph N/A   Clear
11:30 AM 59.0 °F - 32.0 °F 36% 30.01 in 10.0 mi SW 16.1 mph 28.8 mph N/A   Clear
11:55 AM 60.8 °F - 32.0 °F 34% 30.01 in 10.0 mi WSW 21.9 mph 27.6 mph N/A   Scattered Clouds
12:15 PM 60.8 °F - 32.0 °F 34% 30.00 in 10.0 mi SW 12.7 mph 28.8 mph N/A   Scattered Clouds
12:35 PM 60.8 °F - 32.0 °F 34% 30.00 in 10.0 mi West 16.1 mph 25.3 mph N/A   Mostly Cloudy
12:55 PM 60.8 °F - 32.0 °F 34% 29.99 in 10.0 mi WSW 13.8 mph 24.2 mph N/A   Mostly Cloudy
1:15 PM 60.8 °F - 32.0 °F 34% 29.99 in 10.0 mi WSW 13.8 mph 27.6 mph N/A   Mostly Cloudy
1:35 PM 60.8 °F - 32.0 °F 34% 29.99 in 10.0 mi WSW 15.0 mph 24.2 mph N/A   Mostly Cloudy
1:55 PM 60.8 °F - 32.0 °F 34% 29.99 in 10.0 mi SW 11.5 mph 27.6 mph N/A   Mostly Cloudy
2:15 PM 60.8 °F - 33.8 °F 36% 29.99 in 10.0 mi WSW 18.4 mph 26.5 mph N/A   Scattered Clouds
2:35 PM 62.6 °F - 33.8 °F 34% 29.98 in 10.0 mi WSW 12.7 mph 25.3 mph N/A   Scattered Clouds
2:55 PM 62.6 °F - 33.8 °F 34% 29.97 in 10.0 mi SW 9.2 mph 19.6 mph N/A   Scattered Clouds
3:15 PM 62.6 °F - 33.8 °F 34% 29.97 in 10.0 mi WSW 9.2 mph 24.2 mph N/A   Scattered Clouds
3:35 PM 60.8 °F - 33.8 °F 36% 29.97 in 10.0 mi SW 8.1 mph 19.6 mph N/A   Mostly Cloudy
3:55 PM 62.6 °F - 33.8 °F 34% 29.97 in 10.0 mi SW 15.0 mph 21.9 mph N/A   Overcast
4:15 PM 62.6 °F - 33.8 °F 34% 29.97 in 10.0 mi SW 15.0 mph 26.5 mph N/A   Overcast
4:35 PM 62.6 °F - 33.8 °F 34% 29.97 in 10.0 mi WSW 16.1 mph 24.2 mph N/A   Overcast
4:55 PM 62.6 °F - 35.6 °F 37% 29.97 in 10.0 mi SW 13.8 mph 18.4 mph N/A   Overcast
5:15 PM 62.6 °F - 35.6 °F 37% 29.98 in 10.0 mi WSW 12.7 mph 20.7 mph N/A   Mostly Cloudy
5:35 PM 62.6 °F - 35.6 °F 37% 29.99 in 10.0 mi WSW 8.1 mph 16.1 mph N/A   Mostly Cloudy
5:55 PM 62.6 °F - 35.6 °F 37% 29.99 in 10.0 mi SW 12.7 mph 21.9 mph N/A   Scattered Clouds
6:15 PM 60.8 °F - 35.6 °F 39% 29.99 in 10.0 mi SW 11.5 mph 23.0 mph N/A   Mostly Cloudy
6:35 PM 60.8 °F - 37.4 °F 42% 30.00 in 10.0 mi WSW 6.9 mph 11.5 mph N/A   Mostly Cloudy
6:55 PM 59.0 °F - 39.2 °F 48% 30.00 in 10.0 mi WSW 6.9 mph - N/A   Mostly Cloudy
7:15 PM 59.0 °F - 37.4 °F 45% 29.99 in 10.0 mi SW 9.2 mph 19.6 mph N/A   Scattered Clouds
7:35 PM 59.0 °F - 37.4 °F 45% 30.00 in 10.0 mi SW 11.5 mph 17.3 mph N/A   Scattered Clouds
7:55 PM 57.2 °F - 37.4 °F 48% 30.00 in 10.0 mi WSW 12.7 mph 16.1 mph N/A   Scattered Clouds
8:15 PM 57.2 °F - 37.4 °F 48% 30.01 in 10.0 mi WSW 6.9 mph - N/A   Mostly Cloudy
8:35 PM 53.6 °F - 41.0 °F 62% 30.03 in 10.0 mi West 10.4 mph 26.5 mph N/A   Overcast
8:55 PM 51.8 °F - 44.6 °F 76% 30.05 in 10.0 mi NNW 5.8 mph - N/A   Overcast
9:15 PM 51.8 °F - 44.6 °F 76% 30.04 in 10.0 mi NW 4.6 mph - N/A   Mostly Cloudy
9:35 PM 51.8 °F - 44.6 °F 76% 30.04 in 10.0 mi West 4.6 mph - N/A   Scattered Clouds
9:55 PM 51.8 °F - 42.8 °F 71% 30.04 in 10.0 mi WSW 6.9 mph - N/A   Scattered Clouds
10:15 PM 53.6 °F - 42.8 °F 67% 30.04 in 10.0 mi WSW 8.1 mph - N/A   Scattered Clouds
10:35 PM 53.6 °F - 42.8 °F 67% 30.04 in 10.0 mi WSW 10.4 mph - N/A   Mostly Cloudy
10:55 PM 53.6 °F - 42.8 °F 67% 30.04 in 10.0 mi West 8.1 mph - N/A   Overcast
11:50 PM 53.6 °F - 41.0 °F 62% 30.03 in 10.0 mi WSW 10.4 mph 16.1 mph N/A   Scattered Clouds